Tracking 31027 objects as of 19-Jul-2025
HD Live streaming from Space Station
objects crossing your sky now

FENGYUN 1C DEB

Track FENGYUN 1C DEB now!
10-day predictions


NORAD ID: 33673
Int'l Code: 1999-025DFJ
Perigee: 839.2 km
Apogee: 996.1 km
Inclination: 99.4 °
Period: 103.2 minutes
Semi major axis: 7288 km
RCS: 0.0036 m2 (small)
Launch date: May 10, 1999
Source: People's Republic of China (PRC)
Launch site: Taiyaun Space Center, China (TSC)

Note: This is SATELLITE DEBRIS
Your satellite tracking list
CREW DRAGON DEMO-2 DEB
Track 1 satellite(s)




NASA's NSSDC Master Catalog

Two Line Element Set (TLE):
1 33673U 99025DFJ 25199.10000057  .00000074  00000-0  85235-4 0  9994
2 33673  99.3582 243.8029 0107627 264.2392 121.9411 13.95182532878437
Source of the keplerian elements: AFSPC